Location: Roland
(31.1349°N, 85.4372°W)
Time: 04:00:18
(UTC+00:00)

Courier 1B - Pass Details

Date: 22 April 2021
Orbit: 962 x 1209 km, 28.3° (Epoch: 07 May)

Event Time Altitude Azimuth Distance (km) Brightness Sun altitude
Rises 17:02:37 0° 243° (WSW) 3,822 10.6 69.4°
Reaches altitude 10° 17:05:29 10° 238° (WSW) 2,831 10.1 69.7°
Maximum altitude 17:12:03 50° 165° (SSE) 1,247 9.8 70.2°
Drops below altitude 10° 17:18:20 10° 91° (E) 2,708 10.1 70.6°
Sets 17:21:01 0° 86° (E) 3,642 10.6 70.8°
